This is the latest recevied weather packets stored in our database for station/object IK5UIK-3. If no packets are shown the sender has not sent any weather packets the latest 10 day(s).
| Time | Temp. | Humidity | Pressure | Rain* | Wind** | Luminosity | Snow |
|---|---|---|---|---|---|---|---|
| 1788285256 | 27.78° C | 53% | 1009.3 hPa | 0 mm | - | - | - |
| 1788285205 | 28.89° C | 50% | 1009 hPa | 0 mm | - | - | - |
| 1788285192 | 28.89° C | 50% | 1008.9 hPa | 0 mm | - | - | - |
| 1788284896 | 28.33° C | 52% | 1009 hPa | 0 mm | - | - | - |
| 1788284536 | 28.89° C | 50% | 1009 hPa | 0 mm | - | - | - |
| 1788284176 | 28.89° C | 50% | 1009 hPa | 0 mm | - | - | - |
| 1788283816 | 28.89° C | 50% | 1009 hPa | 0 mm | - | - | - |
| 1788283487 | 29.44° C | 49% | 1008.9 hPa | 0 mm | - | - | - |
| 1788283456 | 29.44° C | 49% | 1008.9 hPa | 0 mm | - | - | - |
| 1788283096 | 29.44° C | 49% | 1008.8 hPa | 0 mm | - | - | - |
| 1788282736 | 29.44° C | 49% | 1008.6 hPa | 0 mm | - | - | - |
| 1788282376 | 29.44° C | 49% | 1008.7 hPa | 0 mm | - | - | - |
| 1788282017 | 30° C | 49% | 1008.7 hPa | 0 mm | - | - | - |
| 1788281961 | 30° C | 49% | 1008.7 hPa | 0 mm | - | - | - |
| 1788281887 | 30° C | 48% | 1008.9 hPa | 0 mm | - | - | - |
| 1788281656 | 30° C | 48% | 1008.8 hPa | 0 mm | - | - | - |
| 1788281296 | 30° C | 48% | 1008.8 hPa | 0 mm | - | - | - |
| 1788280936 | 30.56° C | 48% | 1008.9 hPa | 0 mm | - | - | - |
| 1788280576 | 30.56° C | 48% | 1008.8 hPa | 0 mm | - | - | - |
| 1788280459 | 30.56° C | 48% | 1008.7 hPa | 0 mm | - | - | - |
| 1788280216 | 30.56° C | 47% | 1009 hPa | 0 mm | - | - | - |
| 1788280161 | 30.56° C | 47% | 1008.9 hPa | 0 mm | - | - | - |
| 1788279856 | 30.56° C | 47% | 1008.8 hPa | 0 mm | - | - | - |
| 1788279496 | 30.56° C | 47% | 1009 hPa | 0 mm | - | - | - |
| 1788279259 | 31.11° C | 48% | 1009 hPa | 0 mm | - | - | - |
* Rain latest hour (hover to see other rain measurements)
** Current wind speed in m/s (hover to see current wind gust speed)